Location: Bald Rock
(37.3738°N, 119.9354°W)
Time: 12:31:32
(UTC+00:00)

SL-16 R/B - Pass Details

Date: 08 September 2024
Orbit: 842 x 845 km, 71.0° (Epoch: 11 October)

Event Time Altitude Azimuth Distance (km) Brightness Sun altitude
Rises 12:56:13 0° 323° (NW) 3,408 5.1 -8.7°
Reaches altitude 10° 12:59:08 10° 309° (NW) 2,469 4.3 -8.1°
Maximum altitude 13:03:28 23° 259° (W) 1,720 3.2 -7.3°
Drops below altitude 10° 13:07:47 10° 209° (SSW) 2,456 4.2 -6.5°
Sets 13:10:41 0° 195° (SSW) 3,387 5.1 -5.9°
